Location: STAR School
(35.3054°N, 111.2976°W)
Time: 15:29:39
(UTC-07:00)

deb Explorer IX - Pass Details

Date: 01 June 2019
Orbit: 537 x 1115 km, 38.8° (Epoch: 14 June)

Event Time Altitude Azimuth Distance (km) Brightness Sun altitude
Rises 22:27:13 0° 248° (WSW) 3,266 ? -26.3°
Reaches altitude 10° 22:29:52 10° 247° (WSW) 2,241 ? -26.6°
Enters shadow 22:32:13 26° 246° (WSW) 1,362 ? -26.8°
